Powrót do katalogu

ALSAT 2B

AktywnyNaukaSSO
NORAD 41786·PAYLOAD·🇩🇿 Algeria

Wystrzelony Sep 26, 2016 z Satish Dhawan Space Centre

Loading…

Następne Przeloty (najbliższe 24 godziny)

TLE

ŚwieżeSource: Space-Track

Epoka: Sep 14, 2026, 14:18 UTC

1 41786U 16059D   26257.59641563  .00000273  00000-0  52453-4 0  9993
2 41786  97.9812 318.1134 0000820  64.2705 295.8587 14.70963642533916

Śledź ALSAT 2B w czasie rzeczywistym z AllMySat

Download on the App Store